EW9044 Weather Reports


Display with metric or nautical units.
time (UTC)temp
F
wind
direction
speed
MPH
gust
MPH
rain 1hr
in
rain 24hr
in
rain mn
in
humidity
%
barometer
mb
20260502203016 69 0.0 0.0 0.00 0.00 0.00 30 1010.8
20260502201511 68 0.0 0.0 0.00 0.00 0.00 30 1011.1
20260502200013 67 0.0 0.0 0.00 0.00 0.00 29 1011.4
20260502194512 66 0.0 0.0 0.00 0.00 0.00 31 1011.8
20260502193004 65 0.0 0.0 0.00 0.00 0.00 30 1012.1
20260502191603 64 0.0 0.0 0.00 0.00 0.00 32 1012.4
20260502190057 63 0.0 0.0 0.00 0.00 0.00 31 1012.8
20260502184556 64 0.0 0.0 0.00 0.00 0.00 31 1013.1
20260502183051 63 0.0 0.0 0.00 0.00 0.00 31 1013.4
20260502181549 62 0.0 0.0 0.00 0.00 0.00 32 1013.6
20260502163038 57 0.0 0.0 0.00 0.00 0.00 35 1015.4
20260502161534 57 0.0 0.0 0.00 0.00 0.00 38 1015.7
20260502151509 54 0.0 0.0 0.00 0.00 0.00 47 1016.2
20260502123059 40 0.0 0.0 0.00 0.00 0.00 65 1016.8
20260502121535 39 0.0 0.0 0.00 0.00 0.00 67 1016.7
20260502114534 39 0.0 0.0 0.00 0.00 0.00 69 1016.6
20260502113039 39 0.0 0.0 0.00 0.00 0.00 66 1016.5
20260502111531 39 0.0 0.0 0.00 0.00 0.00 65 1016.5
20260502110030 40 0.0 0.0 0.00 0.00 0.00 64 1016.4
20260502104532 40 0.0 0.0 0.00 0.00 0.00 64 1016.6
20260502103027 40 0.0 0.0 0.00 0.00 0.00 63 1016.4
20260502101527 40 0.0 0.0 0.00 0.00 0.00 62 1016.5
20260502091524 41 0.0 0.0 0.00 0.00 0.00 61 1016.4
20260502071512 41 0.0 0.0 0.00 0.00 0.00 62 1016.6
20260502070016 41 0.0 0.0 0.00 0.00 0.00 61 1016.6
20260502064510 42 0.0 0.0 0.00 0.00 0.00 61 1016.7
20260502063007 42 0.0 0.0 0.00 0.00 0.00 59 1016.7
20260502061506 42 0.0 0.0 0.00 0.00 0.00 59 1016.8
20260502060004 42 0.0 0.0 0.00 0.00 0.00 59 1016.7
20260502054502 42 0.0 0.0 0.00 0.00 0.00 59 1016.8
20260502053001 42 0.0 0.0 0.00 0.00 0.00 57 1016.7
20260502051608 43 0.0 0.0 0.00 0.00 0.00 57 1016.7
20260502050058 43 0.0 0.0 0.00 0.00 0.00 58 1016.7
20260502044618 43 0.0 0.0 0.00 0.00 0.00 55 1016.6
20260502043102 44 0.0 0.0 0.00 0.00 0.00 54 1016.6
20260502041556 44 0.0 0.0 0.00 0.00 0.00 52 1016.5
20260502034555 45 0.0 0.0 0.00 0.00 0.00 51 1016.7
20260502033054 45 0.0 0.0 0.00 0.00 0.00 50 1016.7
20260502031554 45 0.0 0.0 0.00 0.00 0.00 50 1016.8
20260502030054 45 0.0 0.0 0.00 0.00 0.00 48 1016.7
20260502024553 46 0.0 0.0 0.00 0.00 0.00 48 1016.6
20260502023052 46 0.0 0.0 0.00 0.00 0.00 46 1016.6
20260502021552 47 0.0 0.0 0.00 0.00 0.00 47 1016.5
20260502020056 48 0.0 0.0 0.00 0.00 0.00 45 1016.5
20260502014552 49 0.0 0.0 0.00 0.00 0.00 44 1016.2
20260502013050 50 0.0 0.0 0.00 0.00 0.00 43 1016.2
20260502011551 51 0.0 0.0 0.00 0.00 0.00 40 1016.0
20260502010050 52 0.0 0.0 0.00 0.00 0.00 38 1016.1
20260502004549 52 0.0 0.0 0.00 0.00 0.00 37 1016.0
20260502003049 53 0.0 0.0 0.00 0.00 0.00 36 1016.0
20260502001553 53 0.0 0.0 0.00 0.00 0.00 37 1016.0
20260502000056 53 0.0 0.0 0.00 0.00 0.00 37 1015.8
20260501234547 53 0.0 0.0 0.00 0.00 0.00 35 1016.0
20260501233047 54 0.0 0.0 0.00 0.00 0.00 35 1015.9
20260501231553 54 0.0 0.0 0.00 0.00 0.00 37 1016.0
20260501230045 54 0.0 0.0 0.00 0.00 0.00 35 1016.0
20260501224545 56 0.0 0.0 0.00 0.00 0.00 32 1015.9
20260501223047 54 0.0 0.0 0.00 0.00 0.00 34 1016.0
20260501221553 55 0.0 0.0 0.00 0.00 0.00 34 1016.1
20260501220044 55 0.0 0.0 0.00 0.00 0.00 32 1016.2
20260501214548 54 0.0 0.0 0.00 0.00 0.00 34 1016.1
20260501213041 54 0.0 0.0 0.00 0.00 0.00 33 1016.2
20260501211541 55 0.0 0.0 0.00 0.00 0.00 33 1016.2
20260501210042 54 0.0 0.0 0.00 0.00 0.00 33 1016.3
20260501204540 55 0.0 0.0 0.00 0.00 0.00 32 1016.3